| time (UTC) | temp F | wind direction | speed knots | gust knots | rain 1hr in | rain 24hr in | rain mn in | humidity % | barometer mb |
| 20260508012725 | 49 | 113 | 0.0 | 0.0 | 0.00 | 0.00 | 0.00 | 79 | 1015.5 |
| 20260508011528 | 50 | 135 | 0.0 | 0.9 | 0.00 | 0.00 | 0.00 | 75 | 1015.2 |
| 20260508010935 | 51 | 135 | 0.0 | 0.0 | 0.00 | 0.00 | 0.00 | 72 | 1015.2 |
| 20260508010349 | 52 | 225 | 0.0 | 0.0 | 0.00 | 0.00 | 0.00 | 73 | 1015.2 |
| 20260508005736 | 52 | 248 | 0.0 | 0.0 | 0.00 | 0.00 | 0.00 | 74 | 1015.2 |
| 20260508003908 | 54 | 180 | 1.7 | 1.7 | 0.00 | 0.00 | 0.00 | 70 | 1014.9 |
| 20260508003340 | 55 | 225 | 2.6 | 2.6 | 0.00 | 0.00 | 0.00 | 66 | 1014.5 |
| 20260508002734 | 56 | 270 | 0.0 | 1.7 | 0.00 | 0.00 | 0.00 | 69 | 1014.5 |
| 20260508002110 | 57 | 113 | 0.0 | 2.6 | 0.00 | 0.00 | 0.00 | 66 | 1014.2 |
| 20260508001532 | 58 | 248 | 0.0 | 0.0 | 0.00 | 0.00 | 0.00 | 64 | 1014.2 |
| 20260508000949 | 59 | 135 | 0.0 | 1.7 | 0.00 | 0.00 | 0.00 | 63 | 1014.2 |
| 20260508000335 | 60 | 248 | 0.9 | 1.7 | 0.00 | 0.00 | 0.00 | 58 | 1014.2 |
| 20260507235747 | 62 | 113 | 1.7 | 2.6 | 0.00 | 0.00 | 0.00 | 57 | 1014.2 |
| 20260507235119 | 63 | 270 | 0.0 | 3.5 | 0.00 | 0.00 | 0.00 | 51 | 1013.8 |
| 20260507234551 | 60 | 225 | 2.6 | 2.6 | 0.00 | 0.00 | 0.00 | 54 | 1013.8 |
| 20260507233938 | 62 | 270 | 4.3 | 5.2 | 0.00 | 0.00 | 0.00 | 49 | 1013.8 |
| 20260507233347 | 62 | 315 | 2.6 | 5.2 | 0.00 | 0.00 | 0.00 | 48 | 1013.8 |
| 20260507231535 | 64 | 270 | 2.6 | 5.2 | 0.00 | 0.00 | 0.00 | 48 | 1013.8 |
| 20260507225744 | 61 | 225 | 5.2 | 5.2 | 0.00 | 0.00 | 0.00 | 57 | 1013.8 |
| 20260507225120 | 60 | 203 | 1.7 | 1.7 | 0.00 | 0.00 | 0.00 | 58 | 1013.5 |
| 20260507224527 | 62 | 180 | 1.7 | 3.5 | 0.00 | 0.00 | 0.00 | 48 | 1013.5 |
| 20260507223918 | 62 | 293 | 3.5 | 3.5 | 0.00 | 0.00 | 0.00 | 49 | 1013.5 |
| 20260507223338 | 62 | 270 | 6.1 | 6.1 | 0.00 | 0.00 | 0.00 | 47 | 1013.5 |
| 20260507222719 | 64 | 225 | 2.6 | 7.8 | 0.00 | 0.00 | 0.00 | 47 | 1013.5 |
| 20260507221516 | 64 | 270 | 9.6 | 9.6 | 0.00 | 0.00 | 0.00 | 46 | 1013.5 |
| 20260507220312 | 63 | 270 | 9.6 | 9.6 | 0.00 | 0.00 | 0.00 | 47 | 1013.2 |
| 20260507215738 | 65 | 225 | 9.6 | 9.6 | 0.00 | 0.00 | 0.00 | 44 | 1013.2 |
| 20260507215144 | 65 | 270 | 10.4 | 10.4 | 0.00 | 0.00 | 0.00 | 46 | 1013.2 |
| 20260507213944 | 64 | 270 | 4.3 | 8.7 | 0.00 | 0.00 | 0.00 | 49 | 1013.2 |
| 20260507212737 | 64 | 248 | 2.6 | 7.8 | 0.00 | 0.00 | 0.00 | 48 | 1013.2 |
| 20260507211532 | 62 | 248 | 6.1 | 7.8 | 0.00 | 0.00 | 0.00 | 49 | 1012.8 |
| 20260507210928 | 64 | 270 | 9.6 | 9.6 | 0.00 | 0.00 | 0.00 | 48 | 1012.8 |
| 20260507210344 | 63 | 270 | 4.3 | 11.3 | 0.00 | 0.00 | 0.00 | 48 | 1012.8 |
| 20260507204547 | 64 | 270 | 7.0 | 10.4 | 0.00 | 0.00 | 0.00 | 49 | 1012.8 |
| 20260507202737 | 64 | 248 | 1.7 | 7.8 | 0.00 | 0.00 | 0.00 | 49 | 1012.8 |
| 20260507202152 | 65 | 225 | 10.4 | 10.4 | 0.00 | 0.00 | 0.00 | 49 | 1012.8 |
| 20260507201538 | 66 | 270 | 6.1 | 9.6 | 0.00 | 0.00 | 0.00 | 48 | 1012.8 |
| 20260507200938 | 65 | 293 | 4.3 | 4.3 | 0.00 | 0.00 | 0.00 | 52 | 1013.2 |
| 20260507195752 | 66 | 225 | 10.4 | 11.3 | 0.00 | 0.00 | 0.00 | 51 | 1013.2 |
| 20260507195151 | 63 | 270 | 3.5 | 7.8 | 0.00 | 0.00 | 0.00 | 50 | 1013.5 |
| 20260507194514 | 63 | 248 | 6.1 | 6.1 | 0.00 | 0.00 | 0.00 | 51 | 1013.5 |
| 20260507193951 | 63 | 270 | 7.0 | 10.4 | 0.00 | 0.00 | 0.00 | 50 | 1013.5 |
| 20260507192732 | 65 | 270 | 7.8 | 7.8 | 0.00 | 0.00 | 0.00 | 50 | 1013.5 |
| 20260507192146 | 64 | 225 | 3.5 | 8.7 | 0.00 | 0.00 | 0.00 | 50 | 1013.5 |
| 20260507191535 | 65 | 248 | 8.7 | 11.3 | 0.00 | 0.00 | 0.00 | 49 | 1013.5 |
| 20260507190936 | 65 | 248 | 5.2 | 7.8 | 0.00 | 0.00 | 0.00 | 50 | 1013.5 |
| 20260507185724 | 64 | 225 | 2.6 | 8.7 | 0.00 | 0.00 | 0.00 | 50 | 1013.5 |
| 20260507185150 | 63 | 248 | 7.0 | 7.0 | 0.00 | 0.00 | 0.00 | 52 | 1013.8 |
| 20260507184549 | 63 | 270 | 7.8 | 7.8 | 0.00 | 0.00 | 0.00 | 51 | 1013.8 |
| 20260507183952 | 64 | 270 | 6.1 | 8.7 | 0.00 | 0.00 | 0.00 | 53 | 1013.5 |
| 20260507183308 | 63 | 270 | 8.7 | 8.7 | 0.00 | 0.00 | 0.00 | 51 | 1013.5 |
| 20260507182714 | 64 | 113 | 1.7 | 6.1 | 0.00 | 0.00 | 0.00 | 53 | 1013.5 |
| 20260507182150 | 63 | 248 | 6.1 | 7.0 | 0.00 | 0.00 | 0.00 | 53 | 1013.8 |
| 20260507181510 | 62 | 270 | 4.3 | 7.0 | 0.00 | 0.00 | 0.00 | 53 | 1013.8 |
| 20260507180928 | 65 | 248 | 4.3 | 9.6 | 0.00 | 0.00 | 0.00 | 52 | 1013.8 |
| 20260507180324 | 64 | 135 | 2.6 | 8.7 | 0.00 | 0.00 | 0.00 | 52 | 1013.8 |
| 20260507174520 | 62 | 270 | 4.3 | 5.2 | 0.00 | 0.00 | 0.00 | 53 | 1013.8 |
| 20260507173945 | 62 | 270 | 6.1 | 9.6 | 0.00 | 0.00 | 0.00 | 52 | 1014.2 |
| 20260507172732 | 64 | 225 | 7.0 | 7.8 | 0.00 | 0.00 | 0.00 | 56 | 1014.2 |
| 20260507172129 | 63 | 248 | 7.0 | 10.4 | 0.00 | 0.00 | 0.00 | 51 | 1014.5 |
| 20260507170911 | 62 | 225 | 4.3 | 9.6 | 0.00 | 0.00 | 0.00 | 54 | 1014.9 |
| 20260507170321 | 62 | 113 | 2.6 | 8.7 | 0.00 | 0.00 | 0.00 | 53 | 1014.9 |
| 20260507165750 | 62 | 248 | 5.2 | 7.8 | 0.00 | 0.00 | 0.00 | 53 | 1014.9 |
| 20260507165135 | 62 | 0 | 6.1 | 6.1 | 0.00 | 0.00 | 0.00 | 55 | 1014.5 |
| 20260507163923 | 60 | 293 | 4.3 | 8.7 | 0.00 | 0.00 | 0.00 | 55 | 1015.2 |
| 20260507162722 | 62 | 248 | 5.2 | 5.2 | 0.00 | 0.00 | 0.00 | 57 | 1015.2 |
| 20260507162152 | 61 | 248 | 8.7 | 8.7 | 0.00 | 0.00 | 0.00 | 59 | 1015.2 |
| 20260507161555 | 60 | 225 | 7.0 | 7.8 | 0.00 | 0.00 | 0.00 | 58 | 1015.2 |
| 20260507160923 | 59 | 90 | 6.1 | 7.8 | 0.00 | 0.00 | 0.00 | 59 | 1015.2 |
| 20260507160346 | 59 | 248 | 4.3 | 6.1 | 0.00 | 0.00 | 0.00 | 58 | 1015.2 |
| 20260507155731 | 59 | 225 | 4.3 | 6.1 | 0.00 | 0.00 | 0.00 | 61 | 1015.2 |
| 20260507155123 | 59 | 180 | 3.5 | 3.5 | 0.00 | 0.00 | 0.00 | 59 | 1015.5 |
| 20260507154519 | 59 | 225 | 1.7 | 8.7 | 0.00 | 0.00 | 0.00 | 59 | 1015.5 |
| 20260507153911 | 60 | 293 | 5.2 | 7.0 | 0.00 | 0.00 | 0.00 | 60 | 1015.5 |
| 20260507153316 | 59 | 270 | 3.5 | 5.2 | 0.00 | 0.00 | 0.00 | 65 | 1015.5 |
| 20260507152750 | 59 | 248 | 3.5 | 7.0 | 0.00 | 0.00 | 0.00 | 64 | 1015.5 |
| 20260507151534 | 58 | 270 | 3.5 | 4.3 | 0.00 | 0.00 | 0.00 | 65 | 1015.9 |
| 20260507150347 | 58 | 270 | 2.6 | 6.1 | 0.00 | 0.00 | 0.00 | 64 | 1015.9 |
| 20260507145715 | 57 | 225 | 3.5 | 8.7 | 0.00 | 0.00 | 0.00 | 62 | 1015.9 |
| 20260507145111 | 57 | 270 | 0.9 | 0.9 | 0.00 | 0.00 | 0.00 | 69 | 1015.9 |
| 20260507144515 | 57 | 270 | 5.2 | 5.2 | 0.00 | 0.00 | 0.00 | 71 | 1016.2 |
| 20260507143939 | 56 | 180 | 2.6 | 2.6 | 0.00 | 0.00 | 0.00 | 73 | 1016.2 |
| 20260507143320 | 56 | 225 | 0.9 | 5.2 | 0.00 | 0.00 | 0.00 | 71 | 1016.2 |
| 20260507142123 | 57 | 270 | 5.2 | 6.1 | 0.00 | 0.00 | 0.00 | 73 | 1016.2 |
| 20260507141518 | 57 | 45 | 1.7 | 5.2 | 0.00 | 0.00 | 0.00 | 73 | 1016.5 |
| 20260507140926 | 56 | 135 | 1.7 | 4.3 | 0.00 | 0.00 | 0.00 | 78 | 1016.5 |
| 20260507140342 | 57 | 203 | 3.5 | 3.5 | 0.00 | 0.00 | 0.00 | 78 | 1016.9 |
| 20260507135143 | 56 | 180 | 1.7 | 2.6 | 0.00 | 0.00 | 0.00 | 86 | 1016.9 |
| 20260507134519 | 55 | 315 | 2.6 | 4.3 | 0.00 | 0.00 | 0.00 | 85 | 1016.9 |
| 20260507133319 | 56 | 270 | 3.5 | 3.5 | 0.00 | 0.00 | 0.00 | 85 | 1017.2 |
| 20260507132743 | 56 | 248 | 3.5 | 3.5 | 0.00 | 0.00 | 0.00 | 86 | 1017.2 |
| 20260507132122 | 55 | 270 | 1.7 | 1.7 | 0.00 | 0.00 | 0.00 | 90 | 1017.2 |
| 20260507130911 | 57 | 45 | 1.7 | 3.5 | 0.00 | 0.00 | 0.00 | 89 | 1017.2 |
| 20260507130311 | 56 | 113 | 0.0 | 0.0 | 0.00 | 0.00 | 0.00 | 95 | 1017.2 |
| 20260507124550 | 52 | 68 | 0.0 | 0.0 | 0.00 | 0.00 | 0.00 | 97 | 1017.2 |
| 20260507123943 | 55 | 248 | 0.0 | 0.0 | 0.00 | 0.00 | 0.00 | 93 | 1017.2 |
| 20260507123343 | 55 | 0 | 0.0 | 0.0 | 0.00 | 0.00 | 0.00 | 94 | 1017.2 |
| 20260507122748 | 54 | 338 | 0.0 | 0.0 | 0.00 | 0.00 | 0.00 | 95 | 1017.2 |
| 20260507122127 | 54 | 248 | 0.0 | 0.0 | 0.00 | 0.00 | 0.00 | 96 | 1017.2 |
| 20260507120340 | 53 | 90 | 0.0 | 0.0 | 0.00 | 0.00 | 0.00 | 99 | 1017.2 |
| 20260507115712 | 52 | 68 | 0.0 | 0.0 | 0.00 | 0.00 | 0.00 | 99 | 1017.2 |
| 20260507115146 | 52 | 90 | 0.0 | 0.0 | 0.00 | 0.00 | 0.00 | 99 | 1017.2 |
| 20260507114527 | 52 | 90 | 0.0 | 0.0 | 0.00 | 0.00 | 0.00 | 99 | 1016.9 |
| 20260507113916 | 51 | 270 | 0.0 | 0.0 | 0.00 | 0.00 | 0.00 | 99 | 1016.9 |
| 20260507113326 | 52 | 90 | 0.0 | 0.0 | 0.00 | 0.00 | 0.00 | 99 | 1016.9 |
| 20260507112752 | 51 | 90 | 0.0 | 0.0 | 0.00 | 0.00 | 0.00 | 99 | 1016.9 |
| 20260507111513 | 51 | 270 | 0.0 | 0.0 | 0.00 | 0.00 | 0.00 | 99 | 1016.9 |
| 20260507110940 | 51 | 270 | 0.0 | 0.0 | 0.00 | 0.00 | 0.00 | 99 | 1016.9 |
| 20260507110320 | 51 | 180 | 0.0 | 0.0 | 0.00 | 0.00 | 0.00 | 99 | 1016.9 |
| 20260507105718 | 50 | 158 | 0.0 | 0.0 | 0.00 | 0.00 | 0.00 | 99 | 1016.9 |
| 20260507105143 | 50 | 248 | 0.0 | 0.0 | 0.00 | 0.00 | 0.00 | 99 | 1016.5 |
| 20260507104546 | 50 | 270 | 0.0 | 0.0 | 0.00 | 0.00 | 0.00 | 99 | 1016.5 |
| 20260507103320 | 50 | 203 | 0.0 | 0.0 | 0.00 | 0.00 | 0.00 | 99 | 1016.5 |
| 20260507102729 | 50 | 248 | 0.0 | 0.0 | 0.00 | 0.00 | 0.00 | 99 | 1016.5 |
| 20260507101525 | 51 | 180 | 0.0 | 0.0 | 0.00 | 0.00 | 0.00 | 99 | 1016.5 |
| 20260507100912 | 51 | 270 | 0.0 | 0.0 | 0.00 | 0.00 | 0.00 | 99 | 1016.5 |
| 20260507100332 | 51 | 158 | 0.0 | 0.0 | 0.00 | 0.00 | 0.00 | 99 | 1016.5 |
| 20260507095740 | 51 | 113 | 0.0 | 0.0 | 0.00 | 0.00 | 0.00 | 99 | 1016.5 |
| 20260507095110 | 51 | 248 | 0.0 | 0.0 | 0.00 | 0.00 | 0.00 | 99 | 1016.2 |
| 20260507093930 | 51 | 248 | 0.0 | 0.0 | 0.00 | 0.00 | 0.00 | 99 | 1016.2 |
| 20260507093344 | 51 | 203 | 0.0 | 0.0 | 0.00 | 0.00 | 0.00 | 99 | 1016.2 |
| 20260507092744 | 51 | 225 | 0.0 | 0.0 | 0.00 | 0.00 | 0.00 | 99 | 1016.2 |
| 20260507092130 | 51 | 225 | 0.0 | 0.0 | 0.00 | 0.00 | 0.00 | 99 | 1016.2 |
| 20260507091510 | 51 | 180 | 0.0 | 0.0 | 0.00 | 0.00 | 0.00 | 99 | 1016.2 |
| 20260507090940 | 52 | 225 | 0.0 | 0.0 | 0.00 | 0.00 | 0.00 | 99 | 1016.2 |
| 20260507090318 | 52 | 248 | 0.0 | 0.0 | 0.00 | 0.00 | 0.00 | 99 | 1016.2 |
| 20260507085715 | 52 | 225 | 0.0 | 0.0 | 0.00 | 0.00 | 0.00 | 99 | 1016.2 |
| 20260507085109 | 52 | 248 | 0.0 | 0.0 | 0.00 | 0.00 | 0.00 | 99 | 1016.2 |
| 20260507084541 | 53 | 270 | 0.0 | 0.0 | 0.00 | 0.00 | 0.00 | 99 | 1016.2 |
| 20260507083925 | 53 | 270 | 0.0 | 0.0 | 0.00 | 0.00 | 0.00 | 99 | 1016.2 |
| 20260507083327 | 53 | 203 | 0.0 | 0.0 | 0.00 | 0.00 | 0.00 | 99 | 1016.2 |
| 20260507082121 | 53 | 248 | 0.0 | 0.0 | 0.00 | 0.00 | 0.00 | 99 | 1016.2 |
| 20260507081530 | 53 | 270 | 0.0 | 0.0 | 0.00 | 0.00 | 0.00 | 99 | 1016.2 |
| 20260507080917 | 54 | 270 | 0.0 | 0.0 | 0.00 | 0.00 | 0.00 | 99 | 1016.2 |
| 20260507080337 | 54 | 270 | 0.0 | 0.0 | 0.00 | 0.00 | 0.00 | 99 | 1016.2 |
| 20260507075716 | 54 | 225 | 0.0 | 0.0 | 0.00 | 0.00 | 0.00 | 99 | 1016.2 |
| 20260507075136 | 54 | 270 | 0.0 | 0.0 | 0.00 | 0.00 | 0.00 | 99 | 1016.5 |
| 20260507074541 | 54 | 180 | 0.0 | 0.0 | 0.00 | 0.00 | 0.00 | 99 | 1016.5 |
| 20260507073952 | 54 | 270 | 0.0 | 0.0 | 0.00 | 0.00 | 0.00 | 99 | 1016.5 |
| 20260507073329 | 54 | 270 | 0.0 | 0.0 | 0.00 | 0.00 | 0.00 | 99 | 1016.2 |
| 20260507072748 | 54 | 203 | 0.0 | 0.0 | 0.00 | 0.00 | 0.00 | 99 | 1016.2 |
| 20260507072116 | 54 | 180 | 0.0 | 0.0 | 0.00 | 0.00 | 0.00 | 99 | 1016.5 |
| 20260507071537 | 54 | 203 | 0.0 | 0.0 | 0.00 | 0.00 | 0.00 | 99 | 1016.5 |
| 20260507070310 | 54 | 158 | 0.0 | 0.0 | 0.00 | 0.00 | 0.00 | 99 | 1016.2 |
| 20260507065753 | 54 | 203 | 0.0 | 0.0 | 0.00 | 0.00 | 0.00 | 99 | 1016.2 |
| 20260507064514 | 54 | 180 | 0.0 | 0.0 | 0.00 | 0.00 | 0.00 | 99 | 1016.2 |
| 20260507063913 | 54 | 180 | 0.0 | 0.0 | 0.00 | 0.00 | 0.00 | 99 | 1016.2 |
| 20260507063347 | 54 | 225 | 0.0 | 0.0 | 0.00 | 0.00 | 0.00 | 99 | 1016.2 |
| 20260507062716 | 54 | 180 | 0.0 | 0.0 | 0.00 | 0.00 | 0.00 | 99 | 1016.2 |
| 20260507062130 | 54 | 180 | 0.0 | 0.0 | 0.00 | 0.00 | 0.00 | 99 | 1016.5 |
| 20260507061517 | 54 | 90 | 0.0 | 0.0 | 0.00 | 0.00 | 0.00 | 99 | 1016.5 |
| 20260507060928 | 54 | 68 | 0.0 | 0.0 | 0.00 | 0.00 | 0.00 | 99 | 1016.5 |
| 20260507060317 | 54 | 135 | 0.0 | 0.0 | 0.00 | 0.00 | 0.00 | 99 | 1016.5 |
| 20260507055734 | 54 | 270 | 0.0 | 0.0 | 0.00 | 0.00 | 0.00 | 99 | 1016.5 |
| 20260507055110 | 54 | 225 | 0.0 | 0.0 | 0.00 | 0.00 | 0.00 | 99 | 1016.5 |
| 20260507053926 | 54 | 180 | 0.0 | 0.0 | 0.00 | 0.00 | 0.00 | 99 | 1016.5 |
| 20260507052712 | 54 | 158 | 0.0 | 0.0 | 0.00 | 0.00 | 0.00 | 99 | 1017.2 |
| 20260507052148 | 54 | 158 | 0.0 | 0.0 | 0.00 | 0.00 | 0.00 | 99 | 1017.2 |
| 20260507051524 | 54 | 180 | 0.0 | 0.0 | 0.00 | 0.00 | 0.00 | 99 | 1017.2 |
| 20260507050911 | 54 | 90 | 0.0 | 0.0 | 0.00 | 0.00 | 0.00 | 99 | 1017.2 |
| 20260507050342 | 54 | 203 | 0.0 | 0.0 | 0.00 | 0.00 | 0.00 | 99 | 1017.2 |
| 20260507045750 | 54 | 90 | 0.0 | 0.0 | 0.00 | 0.00 | 0.00 | 99 | 1017.2 |
| 20260507045142 | 54 | 90 | 0.0 | 0.0 | 0.00 | 0.00 | 0.00 | 99 | 1016.9 |
| 20260507044539 | 54 | 90 | 0.0 | 0.0 | 0.00 | 0.00 | 0.00 | 99 | 1017.2 |
| 20260507043954 | 54 | 45 | 0.0 | 0.0 | 0.00 | 0.00 | 0.00 | 99 | 1017.2 |
| 20260507041541 | 55 | 180 | 0.0 | 0.0 | 0.00 | 0.00 | 0.00 | 99 | 1017.2 |
| 20260507040932 | 55 | 225 | 0.0 | 0.0 | 0.00 | 0.00 | 0.00 | 99 | 1017.2 |
| 20260507040332 | 54 | 203 | 0.0 | 0.0 | 0.00 | 0.00 | 0.00 | 99 | 1016.9 |
| 20260507035713 | 54 | 248 | 0.0 | 0.0 | 0.00 | 0.00 | 0.00 | 99 | 1016.9 |
| 20260507035145 | 54 | 248 | 0.0 | 0.0 | 0.00 | 0.00 | 0.56 | 99 | 1016.9 |
| 20260507034518 | 54 | 90 | 0.0 | 0.0 | 0.00 | 0.00 | 0.56 | 99 | 1016.9 |
| 20260507033911 | 55 | 90 | 0.0 | 0.0 | 0.00 | 0.00 | 0.56 | 99 | 1016.9 |
| 20260507033343 | 53 | 90 | 0.9 | 2.6 | 0.00 | 0.00 | 0.56 | 99 | 1016.9 |
| 20260507032121 | 54 | 90 | 0.0 | 0.0 | 0.00 | 0.00 | 0.56 | 99 | 1016.9 |
| 20260507030950 | 54 | 113 | 0.0 | 0.0 | 0.00 | 0.00 | 0.56 | 99 | 1017.6 |
| 20260507030351 | 55 | 68 | 0.0 | 0.0 | 0.00 | 0.00 | 0.56 | 99 | 1017.6 |
| 20260507025726 | 55 | 203 | 0.0 | 0.0 | 0.00 | 0.00 | 0.56 | 99 | 1017.6 |
| 20260507024540 | 55 | 158 | 0.0 | 0.0 | 0.00 | 0.00 | 0.56 | 99 | 1016.5 |
| 20260507023911 | 55 | 180 | 0.0 | 0.0 | 0.00 | 0.00 | 0.56 | 99 | 1016.5 |
| 20260507023354 | 55 | 270 | 0.0 | 0.0 | 0.00 | 0.00 | 0.56 | 99 | 1016.5 |
| 20260507022710 | 54 | 45 | 0.0 | 0.0 | 0.00 | 0.00 | 0.56 | 99 | 1017.2 |
| 20260507022117 | 55 | 135 | 0.0 | 0.0 | 0.00 | 0.00 | 0.56 | 99 | 1017.2 |
| 20260507021541 | 55 | 180 | 0.0 | 0.0 | 0.00 | 0.00 | 0.56 | 99 | 1016.9 |
| 20260507020939 | 55 | 248 | 0.0 | 0.0 | 0.00 | 0.00 | 0.56 | 99 | 1016.9 |
| 20260507020318 | 55 | 180 | 0.0 | 0.0 | 0.00 | 0.00 | 0.56 | 99 | 1016.9 |
| 20260507015728 | 55 | 90 | 0.0 | 0.0 | 0.00 | 0.00 | 0.56 | 99 | 1016.9 |
| 20260507015145 | 55 | 158 | 0.0 | 0.0 | 0.00 | 0.00 | 0.56 | 99 | 1016.5 |
| 20260507014513 | 55 | 158 | 0.0 | 0.0 | 0.00 | 0.00 | 0.56 | 99 | 1016.5 |
| 20260507013930 | 55 | 180 | 0.0 | 0.0 | 0.00 | 0.00 | 0.56 | 99 | 1016.5 |
| 20260507013354 | 55 | 113 | 0.0 | 0.0 | 0.00 | 0.00 | 0.56 | 99 | 1016.5 |